Weather in Stepurino

Russia / Tver Oblast     56°23′30″N   35°15′47″E
temp.,
°C
wind,
m/s
gust,
m/s
humid.,
%
clouds,
%
prec.,
mm/h
press.,
hPa
HPBL,
m
26 september, sun
sun2600:00+9wnw41096100 2.3 1002646
03:00+8nw51191100 2.6 1004804
06:00+8wnw41093100 0.4 1005685
09:00+8nw61091100 1.2 10071182
12:00+8nw5109092 0.3 1009883
15:00+9nnw5108997 0.5 1011803
18:00+9nnw5118989 0.1 1014780
21:00+9nnw5109280 0.1 1016610
27 september, mon
mon2700:00+8n4109497 0.1 1018605
03:00+8n4994100 0.1 1021507
06:00+8n41094100 0.1 1023517
09:00+9n4108818 0.1 1024563
12:00+12nne576670 0.1 10241241
15:00+12nne466860 0.3 10251147
18:00+10nne3982100 0.1 1026666
21:00+7nne3109593 0.1 1027430
28 september, tue
tue2800:00+8nne3889100 0.0 1027620
03:00+8nne3890100 0.1 1028450
06:00+7ne3890100 0.1 1029573
09:00+7e4780100 0.2 1030911
12:00+8ene3570100 0.0 1032655
15:00+10ene346392 0.0 10321098
18:00+9ene2368100 0.0 1033123
21:00+8e116823 0.0 103418
29 september, wed
wed2900:00+4ne118819 0.0 103510
03:00+3nne11935 0.0 103610
06:00+2n229470 0.0 103718
09:00+6nne237798 0.0 1037209
12:00+10nne225858 0.0 1036776
15:00+12nne225175 0.0 10351079
18:00+8nne117093 0.0 103510
21:00+6nne1179100 0.0 103610
30 september, thu
thu3000:00+5n118450 0.0 103610
03:00+4nnw1188100 0.0 103610
06:00+3nnw11925 0.0 103710
09:00+7nw117511 0.0 1037147
12:00+12nw00585 0.0 1036620
15:00+13sw01535 0.0 1036910
18:00+9s11723 0.0 103610
21:00+7wsw11805 0.0 103610